Flagstaff, AZ

1:46 AM MST on August 20, 2017 (GMT -0700)
Flagstaff Pulliam

Weather History for KFLG - May, 2012

Change the Weather History Date:

Monday, May 14, 2012

  Actual Average Record
Temperature  
Mean Temperature 54 °F 51 °F  
Max Temperature 74 °F 67 °F 83 °F (1938)
Min Temperature 33 °F 35 °F 21 °F (1942)
Degree Days  
Heating Degree Days 11 14  
Month to date heating degree days 188 218  
Since 1 July heating degree days 6297 6574  
Cooling Degree Days 0 0  
Month to date cooling degree days 0 0  
Year to date cooling degree days 0 0  
Growing Degree Days 4 (Base 50)    
Moisture  
Dew Point 15 °F    
Average Humidity 30    
Maximum Humidity 51    
Minimum Humidity 9    
Precipitation  
Precipitation 0.00 in 0.01 in 0.72 in (1901)
Month to date precipitation 0.00 0.28  
Year to date precipitation 4.46 7.76  
Snow  
Snow 0.00 in 0.00 in 0.30 in (1998)
Month to date snowfall 0.0 0.6  
Since 1 July snowfall 102.9 101.6  
Snow Depth 0.00 in    
Sea Level Pressure  
Sea Level Pressure 30.04 in    
Wind  
Wind Speed 9 mph (NE)    
Max Wind Speed 25 mph    
Max Gust Speed 33 mph    
Visibility 10 miles    
Events      
T = Trace of Precipitation, MM = Missing Value Source: NWS Daily Summary

Daily Weather History Graph

Daily Weather History Graph

Search for Another Location

Airport or City:

Trip Planner

Search our weather history database for the weather conditions in past years. The results will help you decide how hot, cold, wet, or windy it might be!

Date:

Astronomy

May. 14, 2012 Rise Set
Actual Time 5:23 AM MST 7:23 PM MST
Civil Twilight 4:55 AM MST 7:51 PM MST
Nautical Twilight 4:20 AM MST 8:25 PM MST
Astronomical Twilight 3:44 AM MST 9:02 PM MST
Moon 1:46 AM MST (5/14) 1:59 PM MST (5/14)
Length of Visible Light 14h 56m
Length of Day
14h 00m
Waning Crescent, 31% of the Moon is Illuminated
May 14
Waning Crescent
May 20
New
May 28
First Quarter
Jun 4
Full
Jun 11
Last Quarter

Hourly Weather History & Observations

Time (MST) Temp. Windchill Dew Point Humidity Pressure Visibility Wind Dir Wind Speed Gust Speed Precip Events Conditions
12:57 AM 46.0 °F 42.5 °F 10.9 °F 24% 30.04 in 10.0 mi NE 6.9 mph - N/A   Clear
1:57 AM 41.0 °F - 15.1 °F 35% 30.06 in 10.0 mi Calm Calm - N/A   Clear
2:57 AM 37.0 °F 34.5 °F 17.1 °F 44% 30.07 in 10.0 mi SW 3.5 mph - N/A   Clear
3:57 AM 34.0 °F - 18.0 °F 52% 30.08 in 10.0 mi Calm Calm - N/A   Clear
4:57 AM 46.9 °F - 15.1 °F 28% 30.02 in 10.0 mi NE 11.5 mph - N/A   Clear
5:57 AM 51.1 °F - 12.9 °F 22% 30.02 in 10.0 mi NE 16.1 mph - N/A   Clear
6:57 AM 55.9 °F - 18.0 °F 23% 30.04 in 10.0 mi ENE 11.5 mph 18.4 mph N/A   Clear
7:57 AM 61.0 °F - 17.1 °F 18% 30.04 in 10.0 mi NE 21.9 mph 29.9 mph N/A   Clear
8:57 AM 63.0 °F - 16.0 °F 16% 30.09 in 10.0 mi NE 17.3 mph 26.5 mph N/A   Clear
9:57 AM 64.0 °F - 15.1 °F 15% 30.06 in 10.0 mi NE 18.4 mph 26.5 mph N/A   Clear
10:57 AM 66.0 °F - 14.0 °F 13% 30.07 in 10.0 mi East 15.0 mph 25.3 mph N/A   Clear
11:57 AM 69.1 °F - 10.9 °F 11% 30.05 in 10.0 mi NE 18.4 mph 27.6 mph N/A   Clear
12:57 PM 70.0 °F - 10.9 °F 10% 30.05 in 10.0 mi NE 13.8 mph 21.9 mph N/A   Clear
1:57 PM 71.1 °F - 12.0 °F 10% 30.06 in 10.0 mi NE 10.4 mph 21.9 mph N/A   Clear
2:57 PM 72.0 °F - 12.0 °F 10% 30.05 in 10.0 mi Variable 6.9 mph 17.3 mph N/A   Clear
3:57 PM 73.9 °F - 12.9 °F 10% 30.04 in 10.0 mi NNE 8.1 mph - N/A   Clear
4:57 PM 73.0 °F - 12.0 °F 10% 29.98 in 10.0 mi East 11.5 mph 18.4 mph N/A   Clear
5:57 PM 72.0 °F - 12.9 °F 10% 29.96 in 10.0 mi NE 8.1 mph - N/A   Clear
6:57 PM 66.0 °F - 14.0 °F 13% 29.98 in 10.0 mi Calm Calm - N/A   Clear
7:57 PM 55.9 °F - 18.0 °F 23% 30.01 in 10.0 mi Calm Calm - N/A   Clear
8:57 PM 50.0 °F - 19.0 °F 29% 30.03 in 10.0 mi NNE 4.6 mph - N/A   Clear
9:57 PM 46.9 °F - 19.9 °F 34% 30.04 in 10.0 mi Calm Calm - N/A   Clear
10:57 PM 44.1 °F - 19.9 °F 38% 30.04 in 10.0 mi Calm Calm - N/A   Clear
11:57 PM 41.0 °F - 21.0 °F 45% 30.04 in 10.0 mi Calm Calm - N/A   Clear